TimeCST,TemperatureF,Dew PointF,Humidity,Sea Level PressureIn,VisibilityMPH,Wind Direction,Wind SpeedMPH,Gust SpeedMPH,PrecipitationIn,Events,Conditions,WindDirDegrees,DateUTC
12:14 AM,30.2,26.6,86,29.87,5.0,SSE,12.7,-,N/A,,Overcast,150,2012-12-01 06:14:00
12:34 AM,30.2,26.6,86,29.86,5.0,SSE,10.4,-,N/A,,Overcast,150,2012-12-01 06:34:00
1:14 AM,30.2,26.6,86,29.83,5.0,SSE,11.5,-,N/A,,Overcast,150,2012-12-01 07:14:00
1:34 AM,30.2,26.6,86,29.82,5.0,SE,9.2,-,N/A,,Overcast,130,2012-12-01 07:34:00
1:54 AM,30.2,26.6,86,29.81,5.0,SE,9.2,-,N/A,,Overcast,140,2012-12-01 07:54:00
2:14 AM,30.2,26.6,86,29.80,4.0,SE,11.5,-,N/A,,Freezing Rain,140,2012-12-01 08:14:00
3:34 AM,30.2,28.4,93,29.76,4.0,SSE,8.1,-,N/A,,Overcast,150,2012-12-01 09:34:00
4:14 AM,32.0,28.4,87,29.73,4.0,SE,12.7,17.3,N/A,,Overcast,140,2012-12-01 10:14:00
4:34 AM,32.0,28.4,87,29.73,4.0,SSE,10.4,-,N/A,,Overcast,150,2012-12-01 10:34:00
5:14 AM,33.8,28.4,81,29.72,4.0,SSE,10.4,-,N/A,,Overcast,160,2012-12-01 11:14:00
5:54 AM,33.8,28.4,81,29.71,3.0,SSE,10.4,-,N/A,,Overcast,160,2012-12-01 11:54:00
6:14 AM,33.8,28.4,81,29.72,4.0,SSE,8.1,-,N/A,,Overcast,160,2012-12-01 12:14:00
6:34 AM,33.8,28.4,81,29.70,4.0,SSE,11.5,-,N/A,,Overcast,160,2012-12-01 12:34:00
7:14 AM,33.8,30.2,87,29.70,3.0,SSE,9.2,-,N/A,,Overcast,160,2012-12-01 13:14:00
7:34 AM,33.8,30.2,87,29.70,3.0,SSE,9.2,-,N/A,,Overcast,160,2012-12-01 13:34:00
7:54 AM,33.8,30.2,87,29.70,3.0,SSE,9.2,-,N/A,,Overcast,160,2012-12-01 13:54:00
8:14 AM,33.8,30.2,87,29.69,3.0,SSE,9.2,-,N/A,,Overcast,160,2012-12-01 14:14:00
8:34 AM,33.8,30.2,87,29.70,2.0,South,6.9,-,N/A,,Overcast,170,2012-12-01 14:34:00
9:14 AM,33.8,30.2,87,29.70,2.0,SSE,4.6,-,N/A,,Overcast,160,2012-12-01 15:14:00
9:34 AM,33.8,30.2,87,29.70,2.0,SSE,4.6,-,N/A,,Overcast,160,2012-12-01 15:34:00
9:54 AM,33.8,30.2,87,29.70,2.0,South,4.6,-,N/A,,Overcast,170,2012-12-01 15:54:00
10:14 AM,35.6,30.2,81,29.70,2.5,South,4.6,-,N/A,,Overcast,180,2012-12-01 16:14:00
10:34 AM,35.6,30.2,81,29.71,2.5,Calm,Calm,-,N/A,,Overcast,0,2012-12-01 16:34:00
11:14 AM,35.6,30.2,81,29.70,2.5,Calm,Calm,-,N/A,,Overcast,0,2012-12-01 17:14:00
11:34 AM,35.6,30.2,81,29.70,2.5,Calm,Calm,-,N/A,,Overcast,0,2012-12-01 17:34:00
12:14 PM,35.6,32.0,87,29.70,2.5,Calm,Calm,-,N/A,,Overcast,0,2012-12-01 18:14:00
12:34 PM,35.6,32.0,87,29.69,3.0,WSW,3.5,-,N/A,,Overcast,250,2012-12-01 18:34:00
12:54 PM,35.6,32.0,87,29.69,3.0,Calm,Calm,-,N/A,,Overcast,0,2012-12-01 18:54:00
1:14 PM,35.6,32.0,87,29.69,3.0,WSW,4.6,-,N/A,,Overcast,250,2012-12-01 19:14:00
1:34 PM,35.6,32.0,87,29.70,2.5,SW,3.5,-,N/A,,Overcast,230,2012-12-01 19:34:00
1:54 PM,35.6,32.0,87,29.71,2.5,WSW,4.6,-,N/A,,Overcast,250,2012-12-01 19:54:00
2:14 PM,35.6,30.2,81,29.71,1.8,West,4.6,-,N/A,,Overcast,270,2012-12-01 20:14:00
2:34 PM,35.6,30.2,81,29.71,1.8,West,3.5,-,N/A,,Overcast,260,2012-12-01 20:34:00
2:54 PM,35.6,30.2,81,29.71,2.0,WSW,3.5,-,N/A,,Overcast,250,2012-12-01 20:54:00
3:14 PM,33.8,30.2,87,29.72,2.0,West,4.6,-,N/A,,Overcast,270,2012-12-01 21:14:00
3:34 PM,35.6,30.2,81,29.73,2.5,West,4.6,-,N/A,,Overcast,260,2012-12-01 21:34:00
4:14 PM,33.8,30.2,87,29.76,4.0,West,5.8,-,N/A,,Overcast,270,2012-12-01 22:14:00
4:34 PM,33.8,30.2,87,29.76,4.0,West,4.6,-,N/A,,Overcast,280,2012-12-01 22:34:00
4:54 PM,33.8,30.2,87,29.76,4.0,WNW,4.6,-,N/A,,Overcast,300,2012-12-01 22:54:00
5:14 PM,33.8,30.2,87,29.76,4.0,Calm,Calm,-,N/A,,Overcast,0,2012-12-01 23:14:00
5:34 PM,33.8,30.2,87,29.76,4.0,Calm,Calm,-,N/A,,Overcast,0,2012-12-01 23:34:00
5:54 PM,33.8,30.2,87,29.76,4.0,West,3.5,-,N/A,,Overcast,280,2012-12-01 23:54:00
6:14 PM,33.8,30.2,87,29.76,4.0,West,3.5,-,N/A,,Overcast,280,2012-12-02 00:14:00
6:34 PM,33.8,30.2,87,29.76,3.0,NW,3.5,-,N/A,,Overcast,310,2012-12-02 00:34:00
6:54 PM,33.8,30.2,87,29.77,2.5,WNW,4.6,-,N/A,,Overcast,300,2012-12-02 00:54:00
7:14 PM,33.8,30.2,87,29.78,2.0,NW,6.9,-,N/A,,Overcast,310,2012-12-02 01:14:00
7:34 PM,33.8,28.4,81,29.79,1.8,Calm,Calm,-,N/A,,Overcast,0,2012-12-02 01:34:00
7:54 PM,33.8,28.4,81,29.79,2.0,WNW,3.5,-,N/A,,Overcast,300,2012-12-02 01:54:00
8:14 PM,33.8,28.4,81,29.79,2.0,NW,6.9,-,N/A,,Overcast,310,2012-12-02 02:14:00
8:34 PM,33.8,28.4,81,29.79,1.5,WNW,8.1,-,N/A,,Overcast,300,2012-12-02 02:34:00
8:54 PM,32.0,28.4,87,29.81,1.5,WNW,6.9,-,N/A,,Overcast,300,2012-12-02 02:54:00
9:14 PM,32.0,28.4,87,29.82,1.8,WNW,8.1,-,N/A,,Overcast,300,2012-12-02 03:14:00
9:34 PM,30.2,28.4,93,29.82,2.0,WNW,8.1,-,N/A,,Overcast,300,2012-12-02 03:34:00
9:54 PM,30.2,28.4,93,29.82,1.8,NW,6.9,-,N/A,,Overcast,310,2012-12-02 03:54:00
10:14 PM,30.2,26.6,86,29.83,2.5,NW,6.9,-,N/A,,Overcast,310,2012-12-02 04:14:00
10:34 PM,30.2,26.6,86,29.83,4.0,WNW,5.8,-,N/A,,Overcast,290,2012-12-02 04:34:00
10:54 PM,30.2,26.6,86,29.83,5.0,WNW,5.8,-,N/A,,Overcast,300,2012-12-02 04:54:00
11:14 PM,30.2,26.6,86,29.83,7.0,NW,8.1,-,N/A,,Overcast,310,2012-12-02 05:14:00
11:34 PM,30.2,26.6,86,29.85,5.0,WNW,9.2,-,N/A,,Overcast,290,2012-12-02 05:34:00
11:54 PM,30.2,26.6,86,29.85,7.0,WNW,5.8,-,N/A,,Overcast,300,2012-12-02 05:54:00